Location: Asheville, NC
(35.6000°N, 82.5500°W)
Time: 18:29:18
(UTC-04:00)

N. Korean satellite - Pass Details

Date: 13 February 2018
Orbit: 457 x 514 km, 97.2° (Epoch: 21 May)

Event Time Altitude Azimuth Distance (km) Brightness Sun altitude
Rises 18:48:52 0° 182° (S) 2,466 10.3 -8.5°
Reaches altitude 10° 18:50:58 10° 190° (S) 1,592 9.5 -8.9°
Maximum altitude 18:54:12 40° 261° (W) 692 8.1 -9.5°
Drops below altitude 10° 18:57:26 10° 333° (NNW) 1,601 9.4 -10.2°
Sets 18:59:34 0° 341° (NNW) 2,482 10.3 -10.6°
